Flag for India

Past Weather in Chennai, Tamil Nadu, India — Yesterday and Last 2 Weeks

Currently: 81 °F. Fog. (Weather station: Madras / Minambakkam, India). See more current weather

Past Weather in Chennai — Graph

°F

Chennai Temperature Yesterday

Maximum temperature yesterday: 88 °F (at 1:30 pm)
Minimum temperature yesterday: 72 °F (at 6:30 am)
Average temperature yesterday: 80 °F

High & Low Weather Summary for the Past Weeks

 TemperatureHumidityPressure
High88 °F (Jan 11, 1:00 pm)100% (Jan 5, 10:00 pm)29.98 "Hg (Jan 5, 10:00 pm)
Low70 °F (Jan 17, 4:30 am)46% (Jan 19, 2:30 pm)29.74 "Hg (Jan 7, 3:00 pm)
Average80 °F82%29.86 "Hg
* Reported Jan 5 6:30 pm — Jan 20 6:30 pm, Chennai. Weather by CustomWeather, © 2021

Note: Actual official high and low records may vary slightly from our data, if they occured in-between our weather recording intervals... More about our weather records

Chennai Weather History for the Previous 24 Hours

Scroll right to see more
 ConditionsComfort  
Time TempWeatherWind HumidityBarometerVisibility
6:30 pm
Wed, Jan 20
81 °FHaze.5 mph74%29.89 "Hg2 mi
6:00 pm81 °FHaze.5 mph74%29.89 "Hg2 mi
5:30 pm82 °FHaze.5 mph70%29.86 "Hg2 mi
5:00 pm84 °FHaze.6 mph66%29.86 "Hg2 mi
4:30 pm84 °FScattered clouds.6 mph66%29.86 "Hg2 mi
4:00 pm84 °FBroken clouds.7 mph66%29.86 "Hg2 mi
3:30 pm84 °FBroken clouds.7 mph66%29.86 "Hg2 mi
3:00 pm82 °FMore clouds than sun.8 mph70%29.86 "Hg2 mi
2:30 pm82 °FMore clouds than sun.8 mph70%29.86 "Hg2 mi
2:00 pm82 °FMore clouds than sun.8 mph70%29.86 "Hg2 mi
1:30 pm82 °FMore clouds than sun.8 mph70%29.89 "Hg2 mi
1:00 pm82 °FMore clouds than sun.7 mph70%29.89 "Hg2 mi
12:30 pm82 °FMore clouds than sun.7 mph70%29.92 "Hg2 mi
12:00 pm82 °FBroken clouds.6 mph70%29.92 "Hg2 mi
11:30 am82 °FBroken clouds.5 mph70%29.95 "Hg2 mi
11:00 am82 °FBroken clouds.6 mph74%29.95 "Hg2 mi
10:30 am82 °FFog.8 mph74%29.95 "Hg2 mi
10:00 am81 °FFog.7 mph79%29.98 "Hg2 mi
9:30 am81 °FFog.8 mph79%29.98 "Hg2 mi
9:00 am79 °FFog.3 mph79%29.98 "Hg1 mi
8:30 am79 °FFog.2 mph79%29.95 "Hg1 mi
8:00 am77 °FFog.2 mph83%29.95 "Hg1 mi
7:30 am75 °FFog.2 mph89%29.92 "Hg1 mi
6:30 am75 °FFog.2 mph89%29.89 "Hg1 mi
6:00 am75 °FFog.2 mph89%29.89 "Hg2 mi
5:30 am75 °FFog.2 mph89%29.86 "Hg2 mi
5:00 am75 °FFog.2 mph89%29.86 "Hg2 mi
4:30 am77 °FFog.2 mph83%29.86 "Hg2 mi
4:00 am77 °FFog.2 mph83%29.86 "Hg2 mi
3:30 am77 °FFog.3 mph83%29.86 "Hg2 mi
3:00 am79 °FFog.5 mph79%29.86 "Hg2 mi
2:30 am79 °FFog.5 mph79%29.86 "Hg2 mi
2:00 am79 °FFog.6 mph79%29.86 "Hg2 mi
1:30 am79 °FFog.6 mph79%29.89 "Hg2 mi
1:00 am79 °FFog.6 mph79%29.89 "Hg2 mi
12:30 am79 °FFog.6 mph79%29.89 "Hg2 mi
12:00 am79 °FFog.5 mph79%29.89 "Hg2 mi
11:30 pm
Tue, Jan 19
79 °FFog.7 mph79%29.92 "Hg2 mi
11:00 pm79 °FFog.7 mph79%29.92 "Hg2 mi
10:30 pm79 °FFog.7 mph79%29.92 "Hg2 mi
10:00 pm79 °FFog.9 mph79%29.92 "Hg2 mi
9:30 pm81 °FFog.7 mph74%29.92 "Hg2 mi
9:00 pm81 °FFog.5 mph74%29.92 "Hg2 mi
8:30 pm79 °FFog.7 mph79%29.89 "Hg2 mi
8:00 pm79 °FFog.3 mph79%29.89 "Hg2 mi
7:30 pm79 °FPassing clouds.5 mph74%29.89 "Hg2 mi
7:00 pm81 °FPassing clouds.6 mph70%29.89 "Hg2 mi
Weather by CustomWeather, © 2021

See weather overview